Regional Weather Roundup
Issued by NWS

Home | Current Version | Previous Version | Graphics & Text | Print | Product List | Glossary On
Versions: 1 2 3 4 5 6 7 8 9 10 11 12 13 14 15 16 17 18 19 20 21 22 23 24 25 26 27 28 29 30 31 32 33 34 35 36 37 38 39 40 41 42 43 44 45 46 47 48 49 50
000
ASUS44 KMEG 290500
RWRTN
TENNESSEE HOURLY STATE WEATHER ROUNDUP
NATIONAL WEATHER SERVICE MEMPHIS TN
1100 PM CST WED JAN 28 2015

TNZ002-004-019-021-049-052-054-088>092-290600-
WEST TENNESSEE

CITY           SKY/WX    TMP DP  RH WIND       PRES   REMARKS
MEMPHIS INTL   MOCLDY    54  33  45 S13       30.07F
NWS MEMPHIS      N/A     52 N/A N/A MISG        N/A
JACKSON        MOCLDY    51  29  42 S14       30.07F
DYERSBURG      MOCLDY    48  25  40 S10       30.06F
UNION CITY     CLEAR     45  32  61 S12       30.03F
PARIS          CLEAR     43  28  56 S12       30.06F
LEXINGTON      CLEAR     45  28  53 S7        30.11F
SAVANNAH       CLEAR     43  30  61 SE6       30.16S
$$

TNZ008-025-027-028-033-062-065-066-290600-
NORTH MIDDLE TENNESSEE

CITY           SKY/WX    TMP DP  RH WIND       PRES   REMARKS
NASHVILLE      PTCLDY    42  28  57 S10       30.14F
CLARKSVILLE    PTCLDY    43  28  55 S9        30.09F
COOKEVILLE     CLEAR     37  16  41 S6        30.18R WCI  33
CROSSVILLE     PTCLDY    35  10  35 S5        30.19R WCI  31
$$

TNZ061-075-076-078-094-096-097-290600-
SOUTH MIDDLE TENNESSEE

CITY           SKY/WX    TMP DP  RH WIND       PRES   REMARKS
FAYETTEVILLE   CLEAR     41  23  48 MISG      30.19R
TULLAHOMA      CLEAR     39  19  45 S5        30.19R
SHELBYVILLE    CLEAR     41  27  56 CALM      30.19S
$$

TNZ017-018-042-046-047-290600-
NORTHEAST TENNESSEE

CITY           SKY/WX    TMP DP  RH WIND       PRES   REMARKS
TRI CITIES     PTCLDY    24  19  81 CALM      30.24F
ELIZABETHTON   CLEAR     27  19  74 NE6       30.22F WCI  20
$$

TNZ012-013-036-069-073-074-290600-
CENTRAL EAST TENNESSEE

CITY           SKY/WX    TMP DP  RH WIND       PRES   REMARKS
KNOXVILLE      MOCLDY    31  21  66 NE3       30.22F
OAK RIDGE      PTCLDY    30  23  75 CALM      30.25F
GATLINBURG     CLEAR     25  21  86 CALM      30.24S
$$

TNZ083-085-099-290600-
SOUTHEAST TENNESSEE

CITY           SKY/WX    TMP DP  RH WIND       PRES   REMARKS
CHATTANOOGA    CLEAR     31  24  75 CALM      30.25S
$$

SKY/WX REPORTED AS FAIR MEANS FEW OR NO CLOUDS BELOW
12 THOUSAND FEET.



USA.gov is the U.S. government's official web portal to all federal, state and local government web resources and services.